Burns Flat, OK

5:04 PM CST on January 23, 2017 (GMT -0600)
Clinton-Sherman

Weather History for KCSM - October, 2011

Change the Weather History Date:

Thursday, October 20, 2011

  Actual Average Record
Temperature  
Mean Temperature 54 °F -  
Max Temperature 69 °F 69 °F 91 °F (2003)
Min Temperature 39 °F 47 °F 39 °F (2011)
Degree Days  
Heating Degree Days 11    
Growing Degree Days 4 (Base 50)    
Moisture  
Dew Point 31 °F    
Average Humidity 46    
Maximum Humidity 70    
Minimum Humidity 23    
Precipitation  
Precipitation 0.00 in - - ()
Sea Level Pressure  
Sea Level Pressure 30.05 in    
Wind  
Wind Speed 9 mph (SSE)    
Max Wind Speed 21 mph    
Max Gust Speed 22 mph    
Visibility 10 miles    
Events      
Averages and records for this station are not official NWS values.
T = Trace of Precipitation, MM = Missing Value Source: NWS Daily Summary

Daily Weather History Graph

Daily Weather History Graph

Search for Another Location

Airport or City:

Trip Planner

Search our weather history database for the weather conditions in past years. The results will help you decide how hot, cold, wet, or windy it might be!

Date:

Astronomy

Oct. 20, 2011 Rise Set
Actual Time 7:47 AM CDT 6:55 PM CDT
Civil Twilight 7:21 AM CDT 7:21 PM CDT
Nautical Twilight 6:51 AM CDT 7:50 PM CDT
Astronomical Twilight 6:22 AM CDT 8:20 PM CDT
Moon 12:49 AM CDT (10/20) 2:51 PM CDT (10/20)
Length of Visible Light 11h 59m
Length of Day
11h 08m
Last Quarter, 44% of the Moon is Illuminated
Oct 20
Last Quarter
Oct 26
New
Nov 2
First Quarter
Nov 10
Full
Nov 18
Last Quarter

Hourly Weather History & Observations

Time (CDT) Temp. Windchill Dew Point Humidity Pressure Visibility Wind Dir Wind Speed Gust Speed Precip Events Conditions
12:53 AM 46.9 °F - 28.9 °F 50% 30.08 in 10.0 mi ESE 5.8 mph - N/A   Clear
1:53 AM 42.1 °F 39.2 °F 30.9 °F 65% 30.09 in 10.0 mi South 4.6 mph - N/A   Clear
2:53 AM 42.1 °F 38.4 °F 30.9 °F 65% 30.08 in 10.0 mi South 5.8 mph - N/A   Clear
3:53 AM 42.1 °F 38.4 °F 30.9 °F 65% 30.07 in 10.0 mi South 5.8 mph - N/A   Clear
4:53 AM 41.0 °F 36.4 °F 30.9 °F 67% 30.06 in 10.0 mi South 6.9 mph - N/A   Clear
5:53 AM 41.0 °F 35.8 °F 30.9 °F 67% 30.07 in 10.0 mi SSW 8.1 mph - N/A   Clear
6:53 AM 41.0 °F 35.8 °F 30.9 °F 67% 30.06 in 10.0 mi South 8.1 mph - N/A   Clear
7:53 AM 39.9 °F 34.5 °F 30.9 °F 70% 30.08 in 10.0 mi South 8.1 mph - N/A   Clear
8:53 AM 48.9 °F - 32.0 °F 52% 30.09 in 10.0 mi South 9.2 mph - N/A   Clear
9:53 AM 53.1 °F - 30.0 °F 41% 30.09 in 10.0 mi South 16.1 mph - N/A   Clear
10:53 AM 57.0 °F - 30.0 °F 36% 30.08 in 10.0 mi South 17.3 mph - N/A   Clear
11:53 AM 61.0 °F - 28.9 °F 30% 30.05 in 10.0 mi SSE 18.4 mph - N/A   Clear
12:53 PM 64.0 °F - 28.9 °F 27% 30.01 in 10.0 mi SSE 20.7 mph - N/A   Clear
1:53 PM 66.0 °F - 30.0 °F 26% 29.99 in 10.0 mi ESE 16.1 mph - N/A   Clear
2:53 PM 68.0 °F - 30.0 °F 24% 29.98 in 10.0 mi South 15.0 mph 21.9 mph N/A   Clear
3:53 PM 69.1 °F - 30.0 °F 23% 29.98 in 10.0 mi South 15.0 mph - N/A   Clear
4:53 PM 68.0 °F - 30.9 °F 25% 29.99 in 10.0 mi South 10.4 mph - N/A   Clear
5:53 PM 66.9 °F - 30.9 °F 26% 30.00 in 10.0 mi South 11.5 mph - N/A   Clear
7:53 PM 57.9 °F - 34.0 °F 41% 30.04 in 10.0 mi SE 6.9 mph - N/A   Clear
8:53 PM 57.0 °F - 34.0 °F 42% 30.04 in 10.0 mi ESE 8.1 mph - N/A   Clear
9:53 PM 54.0 °F - 35.1 °F 49% 30.06 in 10.0 mi SE 8.1 mph - N/A   Clear
10:53 PM 51.1 °F - 35.1 °F 54% 30.08 in 10.0 mi SSE 6.9 mph - N/A   Clear
11:53 PM 50.0 °F - 35.1 °F 57% 30.08 in 10.0 mi SSE 6.9 mph - N/A   Clear